When you browse on this site, cookies collect data to enhance your experience and personalize the content and advertising you see.
Visit our Privacy Policy to learn more. By continuing to use the site, you agree to this use of cookies and data.
EN

Hourly Weather Melnik

Today, 14 August, Friday

Time Temperature Precipitation Wind Pressure Humidity
00:00 +22°C° 0.1 mm 1 mps 745 mmHg 81%
01:00 +21°C° 0.1 mm 1 mps 745 mmHg 84%
02:00 +21°C° 0 mm 1 mps 745 mmHg 86%
03:00 +21°C° 0 mm 1 mps 744 mmHg 89%
04:00 +20°C° 0 mm 1 mps 744 mmHg 91%
05:00 +21°C° 0 mm 1 mps 744 mmHg 88%
06:00 +22°C° 0 mm 1 mps 745 mmHg 85%
07:00 +23°C° 0 mm 1 mps 745 mmHg 82%
08:00 +24°C° 0.1 mm 1 mps 745 mmHg 77%
09:00 +26°C° 0.1 mm 1 mps 745 mmHg 71%
10:00 +27°C° 0.1 mm 2 mps 745 mmHg 65%
11:00 +28°C° 0.6 mm 2 mps 745 mmHg 63%
12:00 +28°C° 0.6 mm 2 mps 745 mmHg 61%
13:00 +29°C° 0.6 mm 2 mps 745 mmHg 59%
14:00 +29°C° 0.5 mm 2 mps 744 mmHg 59%
15:00 +29°C° 0.5 mm 2 mps 744 mmHg 60%
16:00 +28°C° 0.5 mm 2 mps 744 mmHg 60%
17:00 +27°C° 0.7 mm 2 mps 744 mmHg 66%
18:00 +26°C° 0.7 mm 1 mps 744 mmHg 71%
19:00 +24°C° 0.7 mm 1 mps 744 mmHg 77%
20:00 +24°C° 0.8 mm 1 mps 744 mmHg 80%
21:00 +23°C° 0.8 mm 1 mps 744 mmHg 83%
22:00 +22°C° 0.8 mm 1 mps 744 mmHg 86%
23:00 +22°C° 0.2 mm 1 mps 744 mmHg 88%

Tomorrow, 15 August, Saturday

Time Temperature Precipitation Wind Pressure Humidity
00:00 +21°C° 0.2 mm 1 mps 744 mmHg 90%
01:00 +21°C° 0.2 mm 1 mps 744 mmHg 91%
02:00 +20°C° 0 mm 1 mps 744 mmHg 92%
03:00 +20°C° 0 mm 1 mps 744 mmHg 94%
04:00 +20°C° 0 mm 1 mps 744 mmHg 95%
05:00 +20°C° 0 mm 1 mps 744 mmHg 92%
06:00 +21°C° 0 mm 1 mps 744 mmHg 90%
07:00 +21°C° 0 mm 2 mps 745 mmHg 87%
08:00 +23°C° 0.2 mm 1 mps 745 mmHg 83%
09:00 +24°C° 0.2 mm 1 mps 745 mmHg 80%
10:00 +25°C° 0.2 mm 1 mps 745 mmHg 76%
11:00 +25°C° 1 mm 1 mps 745 mmHg 73%
12:00 +26°C° 1 mm 1 mps 745 mmHg 71%
13:00 +27°C° 1 mm 1 mps 745 mmHg 69%
14:00 +26°C° 1.8 mm 2 mps 745 mmHg 71%
15:00 +26°C° 1.8 mm 2 mps 744 mmHg 73%
16:00 +26°C° 1.8 mm 3 mps 744 mmHg 75%
17:00 +24°C° 1.3 mm 3 mps 744 mmHg 79%
18:00 +22°C° 1.3 mm 3 mps 744 mmHg 84%
19:00 +21°C° 1.3 mm 4 mps 744 mmHg 88%
20:00 +21°C° 0.3 mm 3 mps 744 mmHg 88%
21:00 +20°C° 0.3 mm 3 mps 744 mmHg 88%
22:00 +20°C° 0.3 mm 3 mps 745 mmHg 87%
23:00 +19°C° 0 mm 2 mps 745 mmHg 88%

Day after tomorrow, 16 August, Sunday

Time Temperature Precipitation Wind Pressure Humidity
00:00 +19°C° 0 mm 2 mps 745 mmHg 88%
01:00 +19°C° 0 mm 1 mps 744 mmHg 89%
02:00 +19°C° 0 mm 1 mps 744 mmHg 89%
03:00 +19°C° 0 mm 1 mps 744 mmHg 89%
04:00 +19°C° 0 mm 1 mps 744 mmHg 89%
05:00 +19°C° 0 mm 1 mps 745 mmHg 86%
06:00 +20°C° 0 mm 1 mps 745 mmHg 84%
07:00 +21°C° 0 mm 1 mps 745 mmHg 81%
08:00 +22°C° 0 mm 1 mps 745 mmHg 75%
09:00 +24°C° 0 mm 2 mps 745 mmHg 69%
10:00 +25°C° 0 mm 2 mps 745 mmHg 63%
11:00 +26°C° 0 mm 2 mps 745 mmHg 59%
12:00 +27°C° 0 mm 2 mps 745 mmHg 55%
13:00 +28°C° 0 mm 2 mps 745 mmHg 51%
14:00 +28°C° 0 mm 2 mps 745 mmHg 51%
15:00 +28°C° 0 mm 2 mps 744 mmHg 51%
16:00 +28°C° 0 mm 3 mps 744 mmHg 51%
17:00 +27°C° 0 mm 2 mps 744 mmHg 57%
18:00 +25°C° 0 mm 2 mps 744 mmHg 64%
19:00 +24°C° 0 mm 2 mps 744 mmHg 70%
20:00 +23°C° 0 mm 2 mps 744 mmHg 71%
21:00 +21°C° 0 mm 2 mps 744 mmHg 72%
22:00 +20°C° 0 mm 2 mps 744 mmHg 74%
23:00 +21°C° 0 mm 1 mps 744 mmHg 75%

17 August, Monday

Time Temperature Precipitation Wind Pressure Humidity
00:00 +20°C° 0 mm 1 mps 744 mmHg 77%
01:00 +20°C° 0 mm 1 mps 744 mmHg 79%
02:00 +20°C° 0 mm 1 mps 743 mmHg 81%
03:00 +19°C° 0 mm 1 mps 743 mmHg 82%
04:00 +19°C° 0 mm 1 mps 743 mmHg 84%
05:00 +20°C° 0 mm 1 mps 743 mmHg 82%
06:00 +21°C° 0 mm 1 mps 743 mmHg 79%
07:00 +22°C° 0 mm 1 mps 743 mmHg 77%
08:00 +23°C° 0 mm 1 mps 743 mmHg 72%
09:00 +25°C° 0 mm 1 mps 743 mmHg 67%
10:00 +27°C° 0 mm 2 mps 743 mmHg 63%
11:00 +28°C° 0 mm 2 mps 743 mmHg 59%
12:00 +28°C° 0 mm 2 mps 743 mmHg 56%
13:00 +29°C° 0 mm 2 mps 743 mmHg 53%
14:00 +29°C° 0.2 mm 1 mps 742 mmHg 54%
15:00 +29°C° 0.2 mm 1 mps 742 mmHg 55%
16:00 +29°C° 0.2 mm 1 mps 742 mmHg 56%
17:00 +28°C° 0.3 mm 1 mps 742 mmHg 62%
18:00 +26°C° 0.3 mm 1 mps 742 mmHg 67%
19:00 +25°C° 0.3 mm 1 mps 742 mmHg 73%
20:00 +24°C° 0.6 mm 1 mps 742 mmHg 76%
21:00 +24°C° 0.6 mm 1 mps 742 mmHg 78%
22:00 +21°C° 0.6 mm 0 mps 742 mmHg 81%
23:00 +22°C° 1 mm 1 mps 742 mmHg 83%

18 August, Tuesday

Time Temperature Precipitation Wind Pressure Humidity
00:00 +22°C° 1 mm 1 mps 742 mmHg 86%
01:00 +20°C° 1 mm 2 mps 742 mmHg 88%
02:00 +20°C° 0.3 mm 3 mps 742 mmHg 89%
03:00 +20°C° 0.3 mm 3 mps 742 mmHg 90%
04:00 +20°C° 0.3 mm 4 mps 742 mmHg 90%
05:00 +19°C° 1.1 mm 4 mps 742 mmHg 91%
06:00 +19°C° 1.1 mm 4 mps 742 mmHg 92%
07:00 +19°C° 1.1 mm 4 mps 742 mmHg 92%
08:00 +19°C° 1.4 mm 4 mps 743 mmHg 92%
09:00 +19°C° 1.4 mm 4 mps 743 mmHg 91%
10:00 +19°C° 1.4 mm 4 mps 743 mmHg 91%
11:00 +20°C° 1 mm 4 mps 743 mmHg 87%
12:00 +21°C° 1 mm 3 mps 743 mmHg 83%
13:00 +21°C° 1 mm 3 mps 743 mmHg 79%
14:00 +22°C° 0.6 mm 3 mps 743 mmHg 76%
15:00 +22°C° 0.6 mm 3 mps 743 mmHg 73%
16:00 +24°C° 0.6 mm 3 mps 743 mmHg 70%
17:00 +22°C° 0.2 mm 3 mps 743 mmHg 74%
18:00 +21°C° 0.2 mm 2 mps 744 mmHg 79%
19:00 +21°C° 0.2 mm 1 mps 744 mmHg 83%
20:00 +19°C° 0 mm 2 mps 744 mmHg 85%
21:00 +18°C° 0 mm 2 mps 744 mmHg 86%
22:00 +18°C° 0 mm 2 mps 745 mmHg 88%
23:00 +17°C° 0 mm 2 mps 745 mmHg 89%

19 August, Wednesday

Time Temperature Precipitation Wind Pressure Humidity
00:00 +17°C° 0 mm 2 mps 744 mmHg 89%
01:00 +17°C° 0 mm 2 mps 744 mmHg 90%
02:00 +16°C° 0 mm 2 mps 744 mmHg 90%
03:00 +16°C° 0 mm 2 mps 744 mmHg 91%
04:00 +16°C° 0 mm 2 mps 744 mmHg 91%
05:00 +16°C° 0 mm 2 mps 745 mmHg 88%
06:00 +17°C° 0 mm 2 mps 745 mmHg 85%
07:00 +18°C° 0 mm 2 mps 745 mmHg 82%
08:00 +19°C° 0.2 mm 3 mps 745 mmHg 77%
09:00 +21°C° 0.2 mm 4 mps 745 mmHg 71%
10:00 +22°C° 0.2 mm 4 mps 745 mmHg 66%
11:00 +23°C° 0.5 mm 5 mps 744 mmHg 64%
12:00 +23°C° 0.5 mm 5 mps 744 mmHg 61%
13:00 +25°C° 0.5 mm 5 mps 744 mmHg 58%
14:00 +25°C° 0.4 mm 5 mps 744 mmHg 58%
15:00 +25°C° 0.4 mm 4 mps 743 mmHg 58%
16:00 +25°C° 0.4 mm 4 mps 743 mmHg 57%
17:00 +24°C° 0.2 mm 3 mps 743 mmHg 63%
18:00 +21°C° 0.2 mm 3 mps 743 mmHg 69%
19:00 +20°C° 0.2 mm 2 mps 743 mmHg 75%
20:00 +19°C° 0 mm 2 mps 743 mmHg 77%
21:00 +18°C° 0 mm 2 mps 744 mmHg 80%
22:00 +18°C° 0 mm 2 mps 744 mmHg 82%
23:00 +17°C° 0 mm 2 mps 744 mmHg 84%
Show more